Simultaneous Nadir Overpasses (SNOs) Predictions

Prediction of SNOs between AURA and NPP Satellite Orbit:

Table of predicted SNOs for the next 14.0 days since TLE Epoch: 11/9/2013
Index Date (AURA) Time (AURA) Lat,Lon (AURA) SZA (AURA ) Date (NPP) Time (NPP) Lat,Lon (NPP) SZA (NPP ) Distance(km) Time Diff (sec)
1 11/11/2013 02:52:32 78.90, 29.92 109.59 11/11/2013 02:52:22 78.89, 29.88 109.61 0.78 10
2 11/11/2013 03:41:50 -79.26,-160.20 70.87 11/11/2013 03:42:57 -79.27,-160.11 70.94 2.07 67
3 11/13/2013 18:19:41 -78.64, -23.26 69.39 11/13/2013 18:18:39 -78.64, -23.29 69.33 0.61 62
4 11/13/2013 19:08:57 79.04, 146.66 110.13 11/13/2013 19:09:12 79.05, 146.73 110.11 1.60 15
5 11/16/2013 10:36:06 -78.80, 93.47 68.88 11/16/2013 10:35:30 -78.80, 93.50 68.86 0.75 36
6 11/16/2013
